Check out our new BloomSky Weather System.

Active alerts


No alerts


Thunder radar  blitzortung!


Rain radar more information rain snow radar


Visit our other weather sites:

Template documentation
and downloads

And another site



Weather Underground History page Text

Daily Summary for January 31, 2018 Units:  Metric    English   Both
« Previous Day
Next Day »
Daily Weekly Monthly Yearly Custom
  High: Low: Average:
Temperature: -17.8 °C 3.1 °C 13.2 °C
Dew Point: -17.8 °C 1.4 °C 8.6 °C
Humidity: Humidity % 49 % 75 %
Wind Speed: 0 km/h 0 km/h 5.5 km/h
Wind Gust: 0 km/h - -
Wind:- - South
Pressure: 0 hPa 1014.8 hPa -
Precipitation: 0 mm    
Historical Graphs
 
 
Tabular Data for January 31, 2018
Time Temperature Dew Point Pressure Wind Wind Speed Wind Gust Humidity Rainfall Rate (Hourly)
-17.8 °C -17.8 °C 0 hPa Calm     Humidity % 0 mm
00:03 6.4 °C 2.3 °C 1025.3 hPa Calm   1.6 km/h 75 % 0 mm
00:08 6.4 °C 2.3 °C 1025.6 hPa SE 1.6 km/h 3.2 km/h 75 % 0 mm
00:13 6.4 °C 2.3 °C 1025.3 hPa Calm   3.2 km/h 75 % 0 mm
00:18 6.3 °C 2.4 °C 1025.3 hPa SE 1.6 km/h 3.2 km/h 76 % 0 mm
00:23 6.4 °C 2.5 °C 1025.3 hPa Calm   3.2 km/h 76 % 0 mm
00:28 6.4 °C 2.7 °C 1024.9 hPa Calm   3.2 km/h 77 % 0 mm
00:33 6.4 °C 2.7 °C 1024.9 hPa ESE 1.6 km/h 3.2 km/h 77 % 0 mm
00:38 6.4 °C 2.7 °C 1024.9 hPa Calm   1.6 km/h 77 % 0 mm
00:43 6.3 °C 2.6 °C 1024.9 hPa Calm   1.6 km/h 77 % 0 mm
00:48 6.1 °C 2.6 °C 1024.9 hPa Calm   1.6 km/h 78 % 0 mm
00:53 5.9 °C 2.4 °C 1024.9 hPa Calm   1.6 km/h 78 % 0 mm
00:58 5.7 °C 2.3 °C 1024.6 hPa Calm   1.6 km/h 79 % 0 mm
01:03 5.6 °C 2.2 °C 1024.6 hPa Calm   1.6 km/h 79 % 0 mm
01:08 5.4 °C 2.2 °C 1024.6 hPa Calm   1.6 km/h 80 % 0 mm
01:13 5.2 °C 2 °C 1024.3 hPa Calm   1.6 km/h 80 % 0 mm
01:18 5.1 °C 2.1 °C 1024.3 hPa Calm   1.6 km/h 81 % 0 mm
01:23 4.9 °C 2.1 °C 1024.3 hPa Calm   1.6 km/h 82 % 0 mm
01:28 4.8 °C 2 °C 1024.3 hPa Calm   1.6 km/h 82 % 0 mm
01:33 4.6 °C 1.8 °C 1024.3 hPa Calm   1.6 km/h 82 % 0 mm
01:38 4.2 °C 1.4 °C 1024.6 hPa Calm     82 % 0 mm
01:43 4 °C 1.4 °C 1024.3 hPa Calm     83 % 0 mm
01:48 4 °C 1.5 °C 1024.3 hPa Calm     84 % 0 mm
01:53 4.1 °C 2 °C 1024.3 hPa Calm     86 % 0 mm
01:58 4.1 °C 1.8 °C 1024.6 hPa Calm     85 % 0 mm
02:03 3.9 °C 1.6 °C 1024.6 hPa Calm     85 % 0 mm
02:08 3.7 °C 1.4 °C 1024.6 hPa Calm     85 % 0 mm
02:13 3.5 °C 1.4 °C 1024.3 hPa Calm     86 % 0 mm
02:18 3.6 °C 1.5 °C 1024.3 hPa Calm     86 % 0 mm
02:23 3.6 °C 1.6 °C 1024.3 hPa Calm     87 % 0 mm
02:28 3.6 °C 1.6 °C 1024.3 hPa Calm     87 % 0 mm
02:33 3.7 °C 1.9 °C 1023.9 hPa Calm     88 % 0 mm
02:38 3.8 °C 2.2 °C 1023.9 hPa Calm   1.6 km/h 89 % 0 mm
02:43 3.9 °C 2.3 °C 1023.9 hPa Calm   1.6 km/h 89 % 0 mm
02:48 4.2 °C 2.7 °C 1023.9 hPa Calm   1.6 km/h 90 % 0 mm
02:53 4.2 °C 2.7 °C 1023.6 hPa Calm     90 % 0 mm
02:58 4.2 °C 2.7 °C 1023.6 hPa Calm     90 % 0 mm
03:03 4.2 °C 2.7 °C 1023.6 hPa Calm     90 % 0 mm
03:08 4.2 °C 2.7 °C 1023.6 hPa Calm     90 % 0 mm
03:13 4.2 °C 2.7 °C 1023.6 hPa Calm     90 % 0 mm
03:18 4.1 °C 2.8 °C 1023.6 hPa Calm     91 % 0 mm
03:23 3.9 °C 2.4 °C 1023.2 hPa Calm     90 % 0 mm
03:28 3.9 °C 2.6 °C 1023.2 hPa Calm     91 % 0 mm
03:33 3.7 °C 2.4 °C 1023.2 hPa Calm     91 % 0 mm
03:38 3.7 °C 2.4 °C 1023.2 hPa Calm     91 % 0 mm
03:43 3.8 °C 2.6 °C 1023.2 hPa Calm     92 % 0 mm
03:48 3.8 °C 2.6 °C 1022.9 hPa Calm     92 % 0 mm
03:53 3.6 °C 2.3 °C 1022.9 hPa Calm     91 % 0 mm
03:58 3.5 °C 2.2 °C 1022.9 hPa Calm     91 % 0 mm
04:03 3.3 °C 2 °C 1022.9 hPa Calm     91 % 0 mm
04:08 3.1 °C 1.9 °C 1022.9 hPa Calm     92 % 0 mm
04:13 3.1 °C 1.9 °C 1022.9 hPa Calm     92 % 0 mm
04:18 3.3 °C 2.3 °C 1022.9 hPa Calm     93 % 0 mm
04:23 3.5 °C 2.5 °C 1022.6 hPa Calm     93 % 0 mm
04:28 3.7 °C 2.7 °C 1022.6 hPa Calm   1.6 km/h 93 % 0 mm
04:33 3.8 °C 2.9 °C 1022.6 hPa Calm   1.6 km/h 94 % 0 mm
04:38 3.8 °C 2.8 °C 1022.6 hPa Calm   1.6 km/h 93 % 0 mm
04:43 3.9 °C 2.9 °C 1022.6 hPa Calm   1.6 km/h 93 % 0 mm
04:48 3.8 °C 2.8 °C 1022.6 hPa Calm   1.6 km/h 93 % 0 mm
04:53 3.9 °C 3 °C 1022.6 hPa Calm   1.6 km/h 94 % 0 mm
04:58 3.8 °C 2.8 °C 1022.6 hPa Calm     93 % 0 mm
05:03 3.8 °C 2.8 °C 1022.6 hPa Calm     93 % 0 mm
05:08 3.7 °C 2.7 °C 1022.6 hPa Calm     93 % 0 mm
05:13 3.7 °C 2.7 °C 1022.6 hPa Calm     93 % 0 mm
05:18 3.7 °C 2.8 °C 1022.6 hPa Calm     94 % 0 mm
05:23 3.6 °C 2.7 °C 1022.2 hPa Calm     94 % 0 mm
05:28 3.6 °C 2.7 °C 1022.6 hPa Calm     94 % 0 mm
05:33 3.6 °C 2.7 °C 1022.2 hPa Calm     94 % 0 mm
05:38 3.6 °C 2.7 °C 1022.2 hPa Calm     94 % 0 mm
05:44 3.4 °C 2.5 °C 1022.2 hPa Calm     94 % 0 mm
05:49 3.3 °C 2.4 °C 1022.6 hPa Calm     94 % 0 mm
05:53 3.5 °C 2.8 °C 1022.6 hPa Calm     95 % 0 mm
05:58 3.7 °C 3 °C 1022.6 hPa Calm   1.6 km/h 95 % 0 mm
06:04 3.7 °C 3 °C 1022.6 hPa Calm   1.6 km/h 95 % 0 mm
06:09 3.7 °C 3 °C 1022.6 hPa Calm   1.6 km/h 95 % 0 mm
06:14 3.7 °C 3 °C 1022.2 hPa Calm   1.6 km/h 95 % 0 mm
06:19 3.7 °C 3 °C 1022.6 hPa Calm   1.6 km/h 95 % 0 mm
06:24 3.8 °C 3.1 °C 1022.2 hPa Calm   1.6 km/h 95 % 0 mm
06:29 3.7 °C 3 °C 1022.2 hPa Calm   1.6 km/h 95 % 0 mm
06:34 3.7 °C 3 °C 1022.2 hPa Calm   1.6 km/h 95 % 0 mm
06:39 3.7 °C 3 °C 1022.2 hPa Calm   1.6 km/h 95 % 0 mm
06:44 3.6 °C 2.9 °C 1022.2 hPa Calm   1.6 km/h 95 % 0 mm
06:49 3.7 °C 3 °C 1022.2 hPa Calm   1.6 km/h 95 % 0 mm
06:54 3.7 °C 3 °C 1022.2 hPa Calm   1.6 km/h 95 % 0 mm
06:59 3.8 °C 3.1 °C 1022.2 hPa Calm   1.6 km/h 95 % 0 mm
07:04 3.9 °C 3.2 °C 1022.2 hPa Calm   1.6 km/h 95 % 0 mm
07:09 4.1 °C 3.4 °C 1022.2 hPa Calm   1.6 km/h 95 % 0 mm
07:14 4.2 °C 3.6 °C 1022.2 hPa Calm   1.6 km/h 96 % 0 mm
07:19 4.3 °C 3.7 °C 1022.2 hPa Calm   1.6 km/h 96 % 0 mm
07:24 4.3 °C 3.6 °C 1022.2 hPa Calm   1.6 km/h 95 % 0 mm
07:29 4.3 °C 3.7 °C 1022.2 hPa Calm   1.6 km/h 96 % 0 mm
07:34 4.4 °C 3.8 °C 1022.2 hPa Calm   1.6 km/h 96 % 0 mm
07:39 4.5 °C 3.9 °C 1022.2 hPa Calm   1.6 km/h 96 % 0 mm
07:44 4.7 °C 4.1 °C 1022.2 hPa Calm   1.6 km/h 96 % 0 mm
07:49 4.9 °C 4.3 °C 1022.2 hPa Calm   1.6 km/h 96 % 0 mm
07:54 5.3 °C 4.7 °C 1022.2 hPa Calm   1.6 km/h 96 % 0 mm
07:59 5.7 °C 5.3 °C 1022.2 hPa Calm   1.6 km/h 97 % 0 mm
08:04 6.3 °C 5.9 °C 1022.2 hPa Calm   1.6 km/h 97 % 0 mm
08:09 6.9 °C 6.5 °C 1022.2 hPa Calm   1.6 km/h 97 % 0 mm
08:14 7.7 °C 7.4 °C 1022.2 hPa Calm   1.6 km/h 98 % 0 mm
08:19 8.3 °C 8 °C 1022.2 hPa Calm   3.2 km/h 98 % 0 mm
08:24 8.7 °C 8.3 °C 1022.2 hPa SSW 1.6 km/h 4.8 km/h 97 % 0 mm
08:29 9.1 °C 8.6 °C 1022.2 hPa Calm   4.8 km/h 97 % 0 mm
08:34 9.4 °C 8.8 °C 1022.2 hPa ESE 1.6 km/h 4.8 km/h 96 % 0 mm
08:39 9.8 °C 9 °C 1021.9 hPa SSE 1.6 km/h 4.8 km/h 95 % 0 mm
08:44 10.2 °C 9.3 °C 1022.2 hPa ESE 3.2 km/h 6.4 km/h 94 % 0 mm
08:49 10.7 °C 9.6 °C 1021.9 hPa SSE 3.2 km/h 6.4 km/h 93 % 0 mm
08:54 11.2 °C 9.8 °C 1021.9 hPa SE 1.6 km/h 6.4 km/h 91 % 0 mm
08:59 11.7 °C 9.9 °C 1021.9 hPa SSE 3.2 km/h 6.4 km/h 89 % 0 mm
09:04 12.2 °C 10.1 °C 1021.9 hPa SSE 9.7 km/h 9.7 km/h 87 % 0 mm
09:09 12.6 °C 10.1 °C 1021.9 hPa SE 3.2 km/h 11.3 km/h 85 % 0 mm
09:14 13.1 °C 10.5 °C 1021.9 hPa SE 6.4 km/h 11.3 km/h 84 % 0 mm
09:19 13.6 °C 10.8 °C 1021.9 hPa SSE 8 km/h 12.9 km/h 83 % 0 mm
09:24 13.9 °C 10.9 °C 1021.9 hPa SSE 3.2 km/h 12.9 km/h 82 % 0 mm
09:29 14.2 °C 10.8 °C 1021.9 hPa SSE 6.4 km/h 12.9 km/h 80 % 0 mm
09:34 14.6 °C 11 °C 1021.9 hPa SE 11.3 km/h 14.5 km/h 79 % 0 mm
09:39 14.8 °C 10.8 °C 1021.9 hPa SE 9.7 km/h 17.7 km/h 77 % 0 mm
09:44 15 °C 11 °C 1021.9 hPa ESE 6.4 km/h 19.3 km/h 77 % 0 mm
09:49 15.2 °C 11 °C 1022.2 hPa SSE 6.4 km/h 19.3 km/h 76 % 0 mm
09:54 15.4 °C 11.2 °C 1021.9 hPa South 6.4 km/h 19.3 km/h 76 % 0 mm
09:59 15.6 °C 11.2 °C 1021.9 hPa South 8 km/h 17.7 km/h 75 % 0 mm
10:04 15.9 °C 11.3 °C 1021.9 hPa SE 8 km/h 16.1 km/h 74 % 0 mm
10:09 16.2 °C 11.4 °C 1022.2 hPa SE 3.2 km/h 16.1 km/h 73 % 0 mm
10:14 16.7 °C 11.6 °C 1021.9 hPa SE 12.9 km/h 16.1 km/h 72 % 0 mm
10:19 16.8 °C 11.5 °C 1021.9 hPa SSE 9.7 km/h 19.3 km/h 71 % 0 mm
10:24 16.9 °C 11.6 °C 1021.9 hPa South 11.3 km/h 19.3 km/h 71 % 0 mm
10:29 17.2 °C 11.7 °C 1021.9 hPa South 9.7 km/h 19.3 km/h 70 % 0 mm
10:34 17.3 °C 11.6 °C 1021.9 hPa SSE 9.7 km/h 27.4 km/h 69 % 0 mm
10:39 17.4 °C 11.7 °C 1021.9 hPa SSW 12.9 km/h 27.4 km/h 69 % 0 mm
10:44 17.6 °C 11.6 °C 1021.9 hPa SSW 16.1 km/h 27.4 km/h 68 % 0 mm
10:49 17.8 °C 11.4 °C 1021.9 hPa SSW 9.7 km/h 27.4 km/h 66 % 0 mm
10:54 17.9 °C 11.7 °C 1021.6 hPa SSW 9.7 km/h 22.5 km/h 67 % 0 mm
10:59 18.1 °C 11.4 °C 1021.6 hPa SSW 11.3 km/h 22.5 km/h 65 % 0 mm
11:04 18.3 °C 11.4 °C 1021.6 hPa SW 16.1 km/h 22.5 km/h 64 % 0 mm
11:09 18.4 °C 11.7 °C 1021.6 hPa SSE 8 km/h 22.5 km/h 65 % 0 mm
11:14 18.7 °C 11.8 °C 1021.6 hPa South 9.7 km/h 19.3 km/h 64 % 0 mm
11:19 18.8 °C 11.8 °C 1021.6 hPa South 11.3 km/h 19.3 km/h 64 % 0 mm
11:24 19 °C 11.8 °C 1021.6 hPa SSE 9.7 km/h 17.7 km/h 63 % 0 mm
11:29 19.1 °C 11.6 °C 1021.2 hPa South 9.7 km/h 17.7 km/h 62 % 0 mm
11:34 19.2 °C 11.5 °C 1021.2 hPa SE 16.1 km/h 19.3 km/h 61 % 0 mm
11:39 19.2 °C 11.2 °C 1020.9 hPa South 8 km/h 22.5 km/h 60 % 0 mm
11:44 19.3 °C 11.3 °C 1020.9 hPa South 11.3 km/h 22.5 km/h 60 % 0 mm
11:49 19.3 °C 11.6 °C 1020.9 hPa SSE 8 km/h 22.5 km/h 61 % 0 mm
11:54 19.4 °C 11.2 °C 1020.5 hPa SSW 14.5 km/h 24.1 km/h 59 % 0 mm
11:59 19.8 °C 11.6 °C 1020.5 hPa SSW 9.7 km/h 24.1 km/h 59 % 0 mm
12:04 19.9 °C 11.1 °C 1020.2 hPa SSE 11.3 km/h 24.1 km/h 57 % 0 mm
12:09 19.9 °C 11.4 °C 1020.2 hPa SW 11.3 km/h 22.5 km/h 58 % 0 mm
12:14 20.1 °C 11.8 °C 1020.2 hPa SW 14.5 km/h 22.5 km/h 59 % 0 mm
12:19 20.3 °C 11.8 °C 1019.9 hPa SSE 6.4 km/h 22.5 km/h 58 % 0 mm
12:24 20.5 °C 11.4 °C 1019.9 hPa SE 14.5 km/h 22.5 km/h 56 % 0 mm
12:29 20.5 °C 11.4 °C 1019.9 hPa South 11.3 km/h 22.5 km/h 56 % 0 mm
12:34 20.6 °C 11.5 °C 1019.9 hPa SSW 12.9 km/h 22.5 km/h 56 % 0 mm
12:39 20.7 °C 11.3 °C 1019.5 hPa SE 12.9 km/h 22.5 km/h 55 % 0 mm
12:44 20.8 °C 11.7 °C 1019.5 hPa SSE 8 km/h 20.9 km/h 56 % 0 mm
12:49 20.9 °C 11.2 °C 1019.2 hPa SSE 14.5 km/h 20.9 km/h 54 % 0 mm
12:54 20.9 °C 11.2 °C 1019.2 hPa SE 8 km/h 24.1 km/h 54 % 0 mm
12:59 21.1 °C 11.1 °C 1018.8 hPa SE 11.3 km/h 24.1 km/h 53 % 0 mm
13:04 21 °C 11.3 °C 1018.8 hPa SE 11.3 km/h 24.1 km/h 54 % 0 mm
13:09 20.9 °C 11.5 °C 1018.8 hPa SE 8 km/h 20.9 km/h 55 % 0 mm
13:14 21.2 °C 11.5 °C 1018.5 hPa South 4.8 km/h 20.9 km/h 54 % 0 mm
13:19 21.3 °C 11.6 °C 1018.5 hPa SSW 12.9 km/h 20.9 km/h 54 % 0 mm
13:24 21.4 °C 11.4 °C 1018.2 hPa SSW 14.5 km/h 20.9 km/h 53 % 0 mm
13:29 21.4 °C 11.4 °C 1018.2 hPa SE 9.7 km/h 20.9 km/h 53 % 0 mm
13:34 21.6 °C 11.6 °C 1017.8 hPa SW 6.4 km/h 24.1 km/h 53 % 0 mm
13:39 21.6 °C 11.3 °C 1017.8 hPa SSW 16.1 km/h 24.1 km/h 52 % 0 mm
13:44 21.6 °C 11.6 °C 1017.8 hPa SSE 9.7 km/h 24.1 km/h 53 % 0 mm
13:49 21.7 °C 11.1 °C 1017.8 hPa SW 8 km/h 25.7 km/h 51 % 0 mm
13:54 21.7 °C 11.1 °C 1017.5 hPa SW 9.7 km/h 25.7 km/h 51 % 0 mm
13:59 21.7 °C 11.1 °C 1017.5 hPa South 14.5 km/h 25.7 km/h 51 % 0 mm
14:04 21.6 °C 11 °C 1017.5 hPa SSW 9.7 km/h 22.5 km/h 51 % 0 mm
14:09 21.4 °C 10.8 °C 1017.2 hPa SW 12.9 km/h 22.5 km/h 51 % 0 mm
14:14 21.5 °C 11.2 °C 1017.2 hPa SE 16.1 km/h 22.5 km/h 52 % 0 mm
14:19 21.6 °C 11.6 °C 1017.2 hPa ESE 12.9 km/h 25.7 km/h 53 % 0 mm
14:24 21.6 °C 11.6 °C 1017.2 hPa SSE 4.8 km/h 29 km/h 53 % 0 mm
14:29 21.7 °C 12 °C 1016.8 hPa SSW 11.3 km/h 29 km/h 54 % 0 mm
14:34 21.7 °C 12 °C 1016.8 hPa SSW 6.4 km/h 29 km/h 54 % 0 mm
14:39 21.9 °C 12.2 °C 1016.8 hPa SE 6.4 km/h 22.5 km/h 54 % 0 mm
14:44 22.1 °C 11.8 °C 1016.8 hPa South 12.9 km/h 22.5 km/h 52 % 0 mm
14:49 22.2 °C 11.9 °C 1016.5 hPa South 9.7 km/h 17.7 km/h 52 % 0 mm
14:54 22.2 °C 11.9 °C 1016.5 hPa SSE 11.3 km/h 20.9 km/h 52 % 0 mm
14:59 22.2 °C 11.6 °C 1016.5 hPa South 9.7 km/h 20.9 km/h 51 % 0 mm
15:04 22.2 °C 11.9 °C 1016.5 hPa SW 14.5 km/h 20.9 km/h 52 % 0 mm
15:09 22.2 °C 11.6 °C 1016.5 hPa WSW 8 km/h 19.3 km/h 51 % 0 mm
15:14 22.3 °C 11.7 °C 1016.5 hPa SSW 4.8 km/h 19.3 km/h 51 % 0 mm
15:18 22.4 °C 11.2 °C 1016.5 hPa South 9.7 km/h 19.3 km/h 49 % 0 mm
15:23 22.2 °C 11.3 °C 1016.5 hPa SSE 9.7 km/h 25.7 km/h 50 % 0 mm
15:28 22.1 °C 11.2 °C 1016.5 hPa SSE 17.7 km/h 25.7 km/h 50 % 0 mm
15:33 22 °C 11.1 °C 1016.5 hPa WSW 3.2 km/h 25.7 km/h 50 % 0 mm
15:38 22.2 °C 11.6 °C 1016.5 hPa SSW 12.9 km/h 22.5 km/h 51 % 0 mm
15:43 22.1 °C 11.5 °C 1016.5 hPa South 6.4 km/h 22.5 km/h 51 % 0 mm
15:48 22 °C 11.7 °C 1016.5 hPa SW 11.3 km/h 22.5 km/h 52 % 0 mm
15:53 21.9 °C 11.6 °C 1016.5 hPa SSW 8 km/h 22.5 km/h 52 % 0 mm
15:58 21.9 °C 11.3 °C 1016.5 hPa SW 14.5 km/h 22.5 km/h 51 % 0 mm
16:03 21.9 °C 11.6 °C 1016.1 hPa SE 8 km/h 22.5 km/h 52 % 0 mm
16:08 21.9 °C 11.6 °C 1016.5 hPa SSE 11.3 km/h 22.5 km/h 52 % 0 mm
16:13 21.7 °C 11.4 °C 1016.5 hPa SE 6.4 km/h 22.5 km/h 52 % 0 mm
16:18 21.7 °C 11.7 °C 1016.5 hPa SSE 16.1 km/h 19.3 km/h 53 % 0 mm
16:23 21.5 °C 11.5 °C 1016.5 hPa South 9.7 km/h 19.3 km/h 53 % 0 mm
16:28 21.5 °C 11.5 °C 1016.5 hPa South 8 km/h 20.9 km/h 53 % 0 mm
16:33 21.4 °C 11.4 °C 1016.5 hPa SSW 4.8 km/h 20.9 km/h 53 % 0 mm
16:38 21.2 °C 11 °C 1016.5 hPa SW 14.5 km/h 20.9 km/h 52 % 0 mm
16:43 21.1 °C 11.1 °C 1016.5 hPa South 11.3 km/h 22.5 km/h 53 % 0 mm
16:48 20.9 °C 11.2 °C 1016.5 hPa SSW 8 km/h 22.5 km/h 54 % 0 mm
16:53 20.8 °C 11.4 °C 1016.5 hPa SSW 4.8 km/h 22.5 km/h 55 % 0 mm
16:58 20.8 °C 11.4 °C 1016.5 hPa SW 12.9 km/h 20.9 km/h 55 % 0 mm
17:03 20.7 °C 11.1 °C 1016.5 hPa SSW 6.4 km/h 20.9 km/h 54 % 0 mm
17:08 20.6 °C 11 °C 1016.5 hPa SSW 11.3 km/h 17.7 km/h 54 % 0 mm
17:13 20.4 °C 11.1 °C 1016.1 hPa SW 11.3 km/h 19.3 km/h 55 % 0 mm
17:18 20.3 °C 11.2 °C 1016.1 hPa South 11.3 km/h 19.3 km/h 56 % 0 mm
17:23 20.2 °C 11.4 °C 1016.1 hPa SSW 4.8 km/h 19.3 km/h 57 % 0 mm
17:28 20.1 °C 11.3 °C 1016.1 hPa SW 8 km/h 17.7 km/h 57 % 0 mm
17:33 19.9 °C 11.1 °C 1016.1 hPa SSW 4.8 km/h 17.7 km/h 57 % 0 mm
17:38 19.7 °C 11.2 °C 1016.1 hPa SSE 4.8 km/h 17.7 km/h 58 % 0 mm
17:43 19.5 °C 11.5 °C 1016.1 hPa SSE 6.4 km/h 17.7 km/h 60 % 0 mm
17:48 19.4 °C 11.7 °C 1016.1 hPa SE 11.3 km/h 17.7 km/h 61 % 0 mm
17:53 19.3 °C 11.6 °C 1016.1 hPa South 6.4 km/h 14.5 km/h 61 % 0 mm
17:58 19.1 °C 11.6 °C 1016.1 hPa South 4.8 km/h 14.5 km/h 62 % 0 mm
18:03 19 °C 11.8 °C 1016.1 hPa South 3.2 km/h 12.9 km/h 63 % 0 mm
18:08 18.8 °C 11.6 °C 1016.1 hPa South 6.4 km/h 12.9 km/h 63 % 0 mm
18:13 18.7 °C 11.8 °C 1016.1 hPa SSE 1.6 km/h 12.9 km/h 64 % 0 mm
18:18 18.5 °C 11.8 °C 1016.1 hPa SSW 6.4 km/h 12.9 km/h 65 % 0 mm
18:23 18.4 °C 11.7 °C 1016.1 hPa South 3.2 km/h 11.3 km/h 65 % 0 mm
18:28 18.3 °C 11.6 °C 1016.5 hPa SSW 6.4 km/h 11.3 km/h 65 % 0 mm
18:33 18.2 °C 11.7 °C 1016.1 hPa South 6.4 km/h 11.3 km/h 66 % 0 mm
18:38 18.1 °C 11.9 °C 1016.5 hPa South 4.8 km/h 11.3 km/h 67 % 0 mm
18:43 18 °C 12 °C 1016.5 hPa South 8 km/h 11.3 km/h 68 % 0 mm
18:48 17.9 °C 11.9 °C 1016.5 hPa SSW 4.8 km/h 11.3 km/h 68 % 0 mm
18:53 17.8 °C 12 °C 1016.5 hPa SSW 3.2 km/h 9.7 km/h 69 % 0 mm
18:58 17.7 °C 11.9 °C 1016.5 hPa SSW 6.4 km/h 9.7 km/h 69 % 0 mm
19:03 17.6 °C 12.1 °C 1016.5 hPa SSW 3.2 km/h 9.7 km/h 70 % 0 mm
19:08 17.5 °C 12 °C 1016.5 hPa SW 6.4 km/h 9.7 km/h 70 % 0 mm
19:13 17.4 °C 12.1 °C 1016.5 hPa WSW 4.8 km/h 9.7 km/h 71 % 0 mm
19:18 17.3 °C 12 °C 1016.5 hPa SSW 3.2 km/h 9.7 km/h 71 % 0 mm
19:23 17.3 °C 12.2 °C 1016.5 hPa South 8 km/h 9.7 km/h 72 % 0 mm
19:28 17.3 °C 12.2 °C 1016.1 hPa SSW 4.8 km/h 9.7 km/h 72 % 0 mm
19:33 17.2 °C 12.1 °C 1016.5 hPa SSE 4.8 km/h 12.9 km/h 72 % 0 mm
19:38 17.1 °C 12 °C 1016.5 hPa SSW 4.8 km/h 12.9 km/h 72 % 0 mm
19:43 17.1 °C 12.2 °C 1016.5 hPa SE 4.8 km/h 12.9 km/h 73 % 0 mm
19:48 17 °C 12.1 °C 1016.5 hPa SSE 12.9 km/h 12.9 km/h 73 % 0 mm
19:53 17 °C 12.3 °C 1016.1 hPa SSW 6.4 km/h 12.9 km/h 74 % 0 mm
19:58 16.9 °C 12.2 °C 1016.1 hPa SSE 6.4 km/h 16.1 km/h 74 % 0 mm
20:03 16.9 °C 12.2 °C 1016.1 hPa SSW 4.8 km/h 16.1 km/h 74 % 0 mm
20:08 16.8 °C 12.3 °C 1016.1 hPa SE 3.2 km/h 16.1 km/h 75 % 0 mm
20:13 16.7 °C 12.2 °C 1016.1 hPa SSW 8 km/h 11.3 km/h 75 % 0 mm
20:18 16.6 °C 12.1 °C 1016.1 hPa SE 1.6 km/h 11.3 km/h 75 % 0 mm
20:23 16.4 °C 12.2 °C 1016.1 hPa SE 9.7 km/h 11.3 km/h 76 % 0 mm
20:28 16.3 °C 12.1 °C 1016.1 hPa South 3.2 km/h 9.7 km/h 76 % 0 mm
20:33 16.3 °C 12.3 °C 1016.1 hPa SSE 9.7 km/h 11.3 km/h 77 % 0 mm
20:38 16.3 °C 12.3 °C 1016.1 hPa SSW 8 km/h 14.5 km/h 77 % 0 mm
20:43 16.3 °C 12.5 °C 1015.8 hPa South 11.3 km/h 17.7 km/h 78 % 0 mm
20:48 16.3 °C 12.5 °C 1015.8 hPa South 9.7 km/h 17.7 km/h 78 % 0 mm
20:53 16.2 °C 12.6 °C 1016.1 hPa South 6.4 km/h 17.7 km/h 79 % 0 mm
20:58 16.2 °C 12.6 °C 1015.8 hPa SSE 8 km/h 14.5 km/h 79 % 0 mm
21:03 16.2 °C 12.7 °C 1015.8 hPa SSE 4.8 km/h 19.3 km/h 80 % 0 mm
21:08 16.2 °C 12.7 °C 1015.8 hPa SE 8 km/h 19.3 km/h 80 % 0 mm
21:13 16.1 °C 12.8 °C 1015.8 hPa South 9.7 km/h 19.3 km/h 81 % 0 mm
21:18 16.1 °C 13 °C 1015.8 hPa South 6.4 km/h 14.5 km/h 82 % 0 mm
21:23 16.1 °C 13 °C 1015.8 hPa SSE 4.8 km/h 14.5 km/h 82 % 0 mm
21:28 16.1 °C 13 °C 1015.5 hPa SSE 8 km/h 14.5 km/h 82 % 0 mm
21:33 16.1 °C 13 °C 1015.5 hPa SSE 6.4 km/h 14.5 km/h 82 % 0 mm
21:38 16 °C 13.1 °C 1015.5 hPa SW 14.5 km/h 14.5 km/h 83 % 0 mm
21:43 16 °C 13.1 °C 1015.5 hPa South 3.2 km/h 14.5 km/h 83 % 0 mm
21:48 15.9 °C 13 °C 1015.5 hPa South 11.3 km/h 17.7 km/h 83 % 0 mm
21:53 15.9 °C 13.2 °C 1015.5 hPa South 8 km/h 17.7 km/h 84 % 0 mm
21:58 15.9 °C 13.2 °C 1015.5 hPa South 6.4 km/h 17.7 km/h 84 % 0 mm
22:03 15.9 °C 13.2 °C 1015.5 hPa SW 16.1 km/h 17.7 km/h 84 % 0 mm
22:08 15.8 °C 13.1 °C 1015.5 hPa SE 8 km/h 19.3 km/h 84 % 0 mm
22:13 15.8 °C 13.1 °C 1015.1 hPa South 19.3 km/h 19.3 km/h 84 % 0 mm
22:18 15.8 °C 13.3 °C 1015.1 hPa SSW 8 km/h 19.3 km/h 85 % 0 mm
22:23 15.8 °C 13.3 °C 1015.1 hPa SSE 8 km/h 19.3 km/h 85 % 0 mm
22:28 15.7 °C 13.2 °C 1015.1 hPa South 9.7 km/h 19.3 km/h 85 % 0 mm
22:33 15.7 °C 13.4 °C 1015.1 hPa SSW 4.8 km/h 17.7 km/h 86 % 0 mm
22:39 15.7 °C 13.4 °C 1015.1 hPa South 11.3 km/h 17.7 km/h 86 % 0 mm
22:44 15.6 °C 13.3 °C 1015.1 hPa SSW 11.3 km/h 17.7 km/h 86 % 0 mm
22:49 15.6 °C 13.3 °C 1015.1 hPa SSE 6.4 km/h 14.5 km/h 86 % 0 mm
22:53 15.5 °C 13.3 °C 1015.1 hPa South 6.4 km/h 14.5 km/h 87 % 0 mm
22:59 15.5 °C 13.3 °C 1015.1 hPa SW 8 km/h 14.5 km/h 87 % 0 mm
23:04 15.5 °C 13.3 °C 1015.1 hPa SW 4.8 km/h 14.5 km/h 87 % 0 mm
23:09 15.4 °C 13.4 °C 1015.1 hPa South 6.4 km/h 14.5 km/h 88 % 0 mm
23:14 15.4 °C 13.4 °C 1014.8 hPa SSW 12.9 km/h 14.5 km/h 88 % 0 mm
23:19 15.4 °C 13.4 °C 1014.8 hPa SSW 6.4 km/h 14.5 km/h 88 % 0 mm
23:24 15.4 °C 13.4 °C 1014.8 hPa South 6.4 km/h 22.5 km/h 88 % 0 mm
23:29 15.4 °C 13.4 °C 1014.8 hPa SSW 9.7 km/h 22.5 km/h 88 % 0 mm
23:34 15.4 °C 13.4 °C 1014.8 hPa ESE 11.3 km/h 22.5 km/h 88 % 0 mm
23:39 15.4 °C 13.4 °C 1014.8 hPa SSW 4.8 km/h 14.5 km/h 88 % 0 mm
23:44 15.4 °C 13.4 °C 1014.8 hPa SSE 6.4 km/h 16.1 km/h 88 % 0 mm
23:49 15.4 °C 13.4 °C 1014.8 hPa SW 9.7 km/h 20.9 km/h 88 % 0 mm
23:54 15.4 °C 13.4 °C 1014.8 hPa South 6.4 km/h 22.5 km/h 88 % 0 mm
23:59 15.4 °C 13.4 °C 1014.8 hPa SW 6.4 km/h 22.5 km/h 88 % 0 mm
Spring, Texas: Villages of Bridgestone
Compliments of Weather Underground - 2.75 mb

Script developed by  Jim McMurry - jmcmurry@mwt.net Adapted for the template by  Wim van der Kuil - Leuven-Template.eu

You find our weather info also at:

UK Metoffice

WeatherCloud

Weather Underground

Mid-South Weather Network

AWEKAS

Citizen Weather Observer Program (CWOP)

HAMweather, WeatherForYou, PWS Weather

Equipment we use:

Weather-station
Davis Vantage Vue

Weather-program
Meteohub

Weather-server
Debian 7.9 x86 (Guest)

Provider
DreamHost

Davis Vantage Vue

Meteohub

Debian 7.9 x86 (Guest)

DreamHost